Content
SEND FEEDBACK

Daily
Averages
Monthly
Summary
United States of America

RAPID CITY, SOUTH DAKOTA


Home > North America > United States > South Dakota
Elevation: 3162 feet     Latitude: 44 03N     Longitude: 103 04W

WEATHER
 
SELECT A DAY
Number of Records: 205,270;   Date Range: 1/1/95 - 12/26/14
 
SHARE

PRINT THIS DATA

[ ← Previous Day ]
WEATHER ALMANAC - MARCH 20, 2013
[ Next Day → ]
[ °C ]   °F
Weather ElementAverageHighLow
Temperature30.1 °F48 °F (3:52 pm)10.9 °F (5:52 am)
Dewpoint11.5 °F17.1 °F (12:52 pm)3 °F (5:52 am)
Humidity49.7 %74 % (7:52 am)26 % (3:52 pm)
Barometer30.13 in30.46 in (1:52 am)29.85 in (11:52 pm)
Wind Speed11.4 mph20.7 mph (12:52 pm)
Wind Gust36.8 mph (12:52 pm)
Weather ElementAverage
Visibility10 mi
Wind DirectionESE (112.6 °)

Weather ElementTotal
Precipitation---
Heating Degree Days35.6 (Base 65)
Averaged from 23 records on March 20, 2013
WEATHER CONDITIONS BREAKOUT
WIND DIRECTION BREAKOUT
WEATHER BY HOUR - MARCH 20, 2013
[ °C ]   °F
Local TimeTemperatureDewpointHumidityBarometerVisibilityWind DirectionWind SpeedGust SpeedPrecipitationEventsConditions
1:52 AM12.0 °F5.0 °F73 %30.46 in10.0 miCalmClear
2:52 AM12.9 °F5.0 °F71 %30.43 in10.0 miCalmClear
3:52 AM12.0 °F3.9 °F70 %30.40 in10.0 miCalmClear
4:52 AM14.0 °F3.9 °F64 %30.38 in10.0 miESE (110°)3.5 mphClear
5:52 AM10.9 °F3.0 °F70 %30.36 in10.0 miSE (130°)4.6 mphClear
6:52 AM10.9 °F3.9 °F73 %30.37 in10.0 miESE (120°)3.5 mphClear
7:52 AM14.0 °F7.0 °F74 %30.35 in10.0 miESE (120°)3.5 mphClear
8:52 AM23.0 °F12.0 °F63 %30.30 in10.0 miSE (130°)8.1 mphClear
9:52 AM28.9 °F16.0 °F58 %30.26 in10.0 miSE (140°)10.4 mphClear
10:52 AM36.0 °F16.0 °F44 %30.19 in10.0 miSSE (160°)18.4 mphClear
11:52 AM39.9 °F15.1 °F36 %30.15 in10.0 miSSE (160°)19.6 mph26.5 mphClear
12:52 PM44.1 °F17.1 °F34 %30.11 in10.0 miSouth (170°)20.7 mph36.8 mphClear
1:52 PM46.0 °F14.0 °F28 %30.06 in10.0 miSSE (160°)20.7 mph26.5 mphClear
2:52 PM46.9 °F15.1 °F28 %30.00 in10.0 miSSE (150°)20.7 mph28.8 mphClear
3:52 PM48.0 °F14.0 °F26 %29.96 in10.0 miSE (140°)17.3 mphClear
4:52 PM46.9 °F15.1 °F28 %29.93 in10.0 miSSE (150°)15.0 mphClear
5:52 PM46.9 °F14.0 °F27 %29.92 in10.0 miSE (130°)13.8 mphClear
6:52 PM42.1 °F16.0 °F35 %29.91 in10.0 miEast (100°)17.3 mph23.0 mphPartly Cloudy
7:52 PM35.1 °F12.9 °F40 %29.92 in10.0 miESE (110°)19.6 mph26.5 mphMostly Cloudy
8:52 PM32.0 °F12.9 °F45 %29.88 in10.0 miESE (110°)18.4 mph24.2 mphOvercast
9:52 PM30.9 °F14.0 °F50 %29.89 in10.0 miESE (120°)10.4 mphOvercast
10:52 PM30.0 °F14.0 °F51 %29.87 in10.0 miEast (100°)8.1 mphOvercast
11:52 PM28.0 °F14.0 °F56 %29.85 in10.0 miEast (80°)8.1 mphOvercast
Hourly data recorded from KRAP, located miles away from Rapid City, South Dakota







STORIES FROM OUR PARTNERS